Regional Weather Roundup
Issued by NWS

Home | Current Version | Previous Version | Text Only | Print | Product List | Glossary Off
Versions: 1 2 3 4 5 6 7 8 9 10 11 12 13 14 15 16 17 18 19 20 21 22 23 24 25 26 27 28 29 30 31 32 33 34 35 36 37 38 39 40 41 42 43 44 45 46 47 48 49 50

755
ASUS45 KSLC 220610
RWRUT

UTAH REGIONAL WEATHER ROUNDUP
NATIONAL WEATHER SERVICE SALT LAKE CITY UT
1100 PM MST TUE FEB 21 2017

UTZ001>011-023>025-220700-

NORTHERN UTAH

CITY           SKY/WX    TMP DP  RH WIND       PRES   REMARKS
BRIGHAM CITY     N/A     39  34  82 S9        30.07S WCI  33
HILL AFB       CLOUDY    36  32  87 S10       30.06S WCI  28
LOGAN          CLOUDY    36  34  92 CALM      30.07R
OGDEN          LGT RAIN  37  34  89 S10       30.07S WCI  30
SALT LAKE CITY LGT RAIN  35  34  96 SE12      30.09F WCI  27
TOOELE VALLEY  RAIN      34  32  93 SE8       30.11R WCI  27
WENDOVER       CLOUDY    37  25  60 CALM      30.06S
HEBER CITY     SNOW      32  30  93 E10       30.04R VSB 1/2 WCI  24
WEST JORDAN    CLOUDY    35  35 100 CALM      30.11S

$$

UTZ011>015-024>027-220700-

CENTRAL/NORTHEAST UTAH

CITY           SKY/WX    TMP DP  RH WIND       PRES   REMARKS
PROVO AIRPORT  FLURRIES  36  32  85 NW22      30.09R WCI  25
MOAB/CANYONLAN PTCLDY    47  36  65 SW12      30.00F
DELTA          CLOUDY    36  32  87 NW12      30.04S WCI  27
PRICE          PTCLDY    39  33  79 E8        29.99F WCI  33
RICHFIELD      CLEAR     50  28  43 SW18G26   30.06S
ROOSEVELT      CLEAR     43  34  70 NW6       29.98R
VERNAL         CLEAR     42  32  67 SW9       29.93S

$$

UTZ013>016-019>022-027-220700-

SOUTHERN UTAH

CITY           SKY/WX    TMP DP  RH WIND       PRES   REMARKS
BRYCE CANYON   PTCLDY    37  28  70 SW14      30.15F WCI  28
CEDAR CITY     PTCLDY    47  33  58 SW18G28   30.06S
MILFORD        MOCLDY    44  37  76 S13       30.06F
ST GEORGE      CLOUDY    57  42  57 CALM      30.09F
HANKSVILLE     PTCLDY    55  34  44 SW16G25   30.03S
KANAB          CLOUDY    48  39  71 SW6       30.19F
BLANDING       CLOUDY    46  35  66 SE7       30.21S

$$

REGIONAL REPORTS     COLORADO/ARIZONA

CITY           SKY/WX    TMP DP  RH WIND       PRES   REMARKS
CRAIG, CO      CLEAR     47  28  47 W18G28    29.95R
GRAND JUNCTION CLEAR     54  31  41 SW7       30.00F
RIFLE, CO      CLOUDY    49  32  52 N5        29.98F
MONTROSE, CO   CLOUDY    54  31  41 SW20G29   30.06F
CORTEZ, CO     CLOUDY    50  35  56 S17       30.16F
COLORADO CITY    N/A     45  39  81 CALM      30.18F
PAGE, AZ       CLOUDY    54  33  45 S5        30.10S
GRAND CANYON   PTCLDY    34  34 100 NE3       30.25F
KINGMAN, AZ    PTCLDY    51  44  77 S8        30.17S
FLAGSTAFF, AZ  CLEAR     38  36  92 SW6       30.28F WCI  33

$$

REGIONAL REPORTS    NEVADA/IDAHO/WYOMING

CITY           SKY/WX    TMP DP  RH WIND       PRES   REMARKS
LAS VEGAS, NV  MOCLDY    62  39  42 S14G29    30.03F
ELY, NY        LGT SNOW  32  32 100 NW3       30.05S VSB 1
ELKO, NV       CLOUDY    32  29  88 S14       30.08S WCI  22
POCATELLO, ID  CLOUDY    35  28  75 S12       30.02R WCI  27
BURLEY, ID     CLOUDY    39  27  62 SW12      30.03R WCI  32
FORT BRIDGER,  LGT SNOW  29  29 100 W9        30.06S WCI  20
EVANSTON, WY   SNOW      27  23  85 NW9       30.05R VSB 1/2 WCI  18
ROCK SPRINGS,  LGT SNOW  30  27  88 SW13      30.03R FOG     WCI  20
KEMMERER, WY   LGT SNOW  28  27  93 SW12      30.01F WCI  18

$$




USA.gov is the U.S. government's official web portal to all federal, state and local government web resources and services.